Location: Gries
(47.2000°N, 11.1500°E)
Time: 17:55:21
(UTC+00:00)

Daily predictions for brighter satellites

Satellite Brightness Start Highest point End
(mag) Time Altitude Azimuth Time Altitude Azimuth Time Altitude Azimuth
Cosmos 2297 Rocket 2.6 19:22:56 10° NNW 19:28:33 64° WSW 19:34:07 10° SSE
Terra 3.8 19:27:39 10° E 19:30:30 16° ENE 19:33:19 10° NNE
SPOT 3 Rocket 4.3 19:27:30 10° SE 19:32:12 37° ENE 19:36:55 10° N
Cosmos 1633 Rocket 3.2 19:30:50 10° NNW 19:35:13 77° W 19:39:33 10° S
ATLAS 2AS CENTAUR R/B 3.7 19:31:00 10° SSE 19:37:31 30° ESE 19:43:54 10° NE
MetOp-B 4.5 19:33:16 10° SE 19:38:26 53° ENE 19:43:38 10° N
SJ 16-02 2.8 19:36:42 10° SE 19:39:50 20° E 19:42:58 10° NE
Landsat 7 4.2 19:35:27 10° S 19:40:08 68° WSW 19:44:51 10° NNW
Cosmos 1486 Rocket 4.1 19:35:00 10° S 19:40:10 57° ESE 19:45:21 10° NNE
NOSS 3-4 (A) 3.3 19:36:09 10° SSW 19:41:50 76° SE 19:48:00 10° NE
NOSS 3-4 (C) 3.3 19:36:13 10° SSW 19:41:55 75° SE 19:48:05 10° NE
ARGOS Delta rocket 4.2 19:37:18 10° NNE 19:42:47 65° E 19:48:09 10° S
Meteor 1-10 Rocket 4.3 19:37:43 10° S 19:43:17 90° W 19:48:56 10° NNE
Helios 1A Rocket 4.1 19:41:11 10° SE 19:44:37 28° ENE 19:48:04 10° N
Cosmos 1470 Rocket 3.5 19:41:12 10° N 19:45:33 82° ENE 19:49:52 10° S
BREEZE M DEB (TANK) 3.8 19:43:04 10° WSW 19:47:07 82° SSE 20:02:32 10° ENE
SL-16 R/B 4.1 19:48:29 10° E 19:49:05 10° E 19:49:42 10° E
ISS -2.7 19:47:34 10° WNW 19:50:49 44° NNE 19:54:02 10° E
Resurs 01 Rocket 1.8 19:47:21 10° S 19:51:45 77° WSW 19:56:11 10° NNW
Meteor 1-27 Rocket 3.8 19:47:51 10° S 19:53:35 71° E 19:59:27 10° NNE
Cosmos 1515 Rocket 3.5 19:56:24 10° S 20:00:46 81° E 20:05:10 10° N
Cosmos 1515 3.7 19:59:19 10° S 20:03:05 88° W 20:06:53 10° N
ATLAS 3B R/B 3.9 19:57:23 10° NNW 20:04:07 39° NE 20:11:06 10° ESE
Meteor 1-11 Rocket 4.2 19:59:37 10° NNW 20:05:34 68° W 20:11:27 10° S
Cosmos 2219 3.8 20:00:36 10° NW 20:06:05 54° WSW 20:11:31 10° S
Cosmos 2278 4.3 20:03:13 10° S 20:08:16 35° ESE 20:13:21 10° NE
Cosmos 1464 Rocket 4.0 20:02:27 10° S 20:08:39 80° E 20:14:50 10° N
Cosmos 1503 Rocket 4.1 20:04:04 10° S 20:09:14 61° ESE 20:14:30 10° NNE
Cosmos 921 Rocket 3.1 20:05:25 10° NNW 20:09:57 72° ENE 20:13:46 14° SSE
Cosmos 2228 Rocket 3.9 20:07:29 12° SSE 20:11:10 35° E 20:15:18 10° NNE
EXPRESS MD2 3.9 20:07:10 10° WNW 20:13:05 53° SW 20:15:32 17° SE
Cosmos 2082 3.7 20:08:02 10° NNW 20:13:43 86° WSW 20:18:40 14° SSE
Cosmos 1869 Rocket 4.0 20:09:23 10° N 20:13:45 48° ENE 20:17:11 16° SSE
CARTOSAT-1 3.5 20:10:00 11° SSE 20:14:06 86° ENE 20:18:26 10° NNW
Cosmos 389 Rocket 2.8 20:11:54 10° NNW 20:15:22 66° W 20:18:42 11° S
Cosmos 1340 2.8 20:12:30 10° SSW 20:16:14 74° WNW 20:19:59 10° N
ERS-1 Rocket 3.4 20:12:49 14° SE 20:16:53 49° ENE 20:21:45 10° N
SPOT 1/Viking Rocket 4.1 20:12:00 10° S 20:17:05 58° W 20:22:12 10° NNW
Cosmos 44 Rocket 4.2 20:12:40 10° NNW 20:17:07 39° NE 20:21:00 13° ESE
Cosmos 2263 Rocket 2.5 20:13:53 10° NNW 20:19:25 57° ENE 20:23:47 16° SE
Cosmos 1743 3.3 20:17:40 10° NNW 20:21:23 53° W 20:25:03 10° S
Cosmos 1092 Rocket 4.3 20:16:04 10° N 20:22:06 51° ENE 20:26:52 16° SSE
SWAS 4.4 20:17:47 10° NNW 20:22:06 89° WSW 20:25:19 18° SSE
Nadezhda 4 Rocket 4.0 20:17:51 10° N 20:24:09 87° E 20:29:57 12° S
Aureole 1 Rocket 3.0 20:21:41 10° SW 20:24:49 52° WNW 20:27:45 10° NNE
Cosmos 1346 Rocket 4.3 20:24:09 17° ESE 20:25:46 22° E 20:28:51 10° NE
Cosmos 1184 Rocket 3.3 20:25:27 10° SSW 20:28:24 53° WNW 20:31:23 10° N
Geosat FO 4.4 20:26:38 20° SE 20:28:50 79° ENE 20:32:11 10° NNW
H-2A R/B 4.2 20:26:41 10° N 20:30:06 26° WNW 20:33:31 10° WSW
ARIANE 5 R/B 3.3 20:30:42 18° SE 20:33:36 42° ENE 20:37:54 10° N
Meteor 2-14 Rocket 4.4 20:28:09 10° N 20:34:15 88° E 20:39:31 14° S
Cosmos 2227 Rocket 3.8 20:30:27 10° NW 20:35:16 29° WSW 20:40:03 10° SSW
CZ-4B R/B 3.9 20:34:32 10° NNW 20:37:04 22° WNW 20:39:34 10° WSW
Cosmos 1707 Rocket 4.3 20:37:47 21° SE 20:40:08 37° E 20:44:13 10° NNE
Timation 2 Rocket 4.3 20:35:29 10° NNW 20:42:00 69° WSW 20:47:19 17° SSE
Ariane Rocket 4.3 20:38:26 10° SSW 20:43:05 36° W 20:47:46 10° NNW
Cosmos 1980 Rocket 2.3 20:40:05 10° SSW 20:45:43 80° WNW 20:51:26 10° NNE
NOSS 2-1 (C) 4.0 20:47:11 24° ESE 20:47:11 24° ESE 20:49:31 10° ENE
OE (NEXTSAT) 4.2 20:43:51 10° WSW 20:47:05 54° SSE 20:49:18 18° E
ASTRO F (AKARI) 4.1 20:46:00 30° SSE 20:47:22 79° ENE 20:50:32 10° NNW
Cosmos 2344 3.6 20:41:10 10° SW 20:48:40 85° NW 20:56:28 10° NE
Cosmos 2026 Rocket 4.0 20:42:39 10° N 20:48:49 69° E 20:53:10 21° SSE
CZ-2C R/B 3.8 20:45:43 10° NNE 20:50:30 71° ESE 20:54:13 17° S
Okean 1 3.7 20:47:13 10° SSW 20:51:06 65° W 20:55:07 10° N
RESURS DK-1 2.2 20:47:07 10° SSW 20:51:13 74° ESE 20:55:21 10° NNE
Cosmos 2369 4.2 20:47:26 10° SW 20:53:02 63° WNW 20:58:41 10° NNE
Cosmos 2322 Rocket 3.3 20:51:51 21° SE 20:53:45 26° ESE 20:58:17 10° NE
Meteor 1-19 Rocket 4.2 20:48:22 10° SSW 20:53:48 77° WNW 20:59:14 10° N
Meteor 2-4 Rocket 3.8 20:51:55 18° S 20:56:13 63° E 21:01:48 10° NNE
ATLAS CENTAUR R/B 3.9 20:53:29 10° NNW 20:57:06 20° NNE 21:00:39 10° ENE
NOSS 2-1 (D) 3.5 20:57:25 31° ESE 20:57:25 31° ESE 21:00:10 10° ENE
SL-4 R/B 3.8 20:55:20 10° W 20:58:47 22° SW 21:00:27 18° SSW
Cosmos 482 Debris 4.0 20:55:50 10° WNW 20:58:52 71° SSW 21:01:01 27° SE
Cosmos 1844 Rocket 4.0 20:54:21 10° NNW 20:59:15 30° NE 21:03:15 14° ESE
USA 215 4.1 20:53:57 10° ENE 20:59:21 27° SE 21:01:46 22° SSE
SL-24 R/B - RUBIN 2 3.6 20:55:53 10° NW 21:00:16 72° NE 21:02:43 27° SE
Cosmos 1378 3.0 20:58:34 25° S 21:00:36 85° E 21:04:16 10° N
SPOT 5 3.4 20:57:32 18° S 21:01:27 64° WSW 21:06:34 10° NNW
Cosmos 1697 Rocket 4.4 21:00:17 10° WSW 21:05:24 34° NW 21:10:33 10° NNE
Terra 1.9 21:04:47 24° S 21:07:39 77° WSW 21:12:27 10° NNW
Cosmos 1627 Rocket 4.5 21:01:34 10° N 21:07:49 86° W 21:12:06 22° S
Cosmos 1733 Rocket 3.2 21:05:04 10° N 21:09:31 63° E 21:11:30 31° SSE
Meteor 2-8 Rocket 4.4 21:08:41 20° S 21:13:00 76° E 21:19:06 10° NNE
Cosmos 1975 3.1 21:12:17 10° NNW 21:16:21 65° W 21:18:16 29° S
Cosmos 1777 Rocket 4.2 21:11:25 10° SSW 21:16:38 73° WNW 21:21:53 10° NNE
Spot 2 Rocket 4.3 21:13:13 17° SSW 21:16:47 44° W 21:21:36 10° NNW
Transit 2A Rocket 4.5 21:12:25 10° NNW 21:16:54 79° NE 21:18:44 34° SE
Cosmos 2227 4.2 21:11:51 10° NNW 21:17:39 82° WSW 21:20:48 28° SSE
SJ 16-02 2.3 21:13:50 10° SW 21:18:02 46° WNW 21:22:16 10° N
Cosmos 2219 Rocket 4.2 21:19:34 11° E 21:19:57 11° E 21:21:09 10° E
Iridium 45 4.4 21:19:55 38° S 21:21:10 83° W 21:24:41 10° N
Cosmos 1862 Rocket 3.6 21:20:51 33° SSE 21:22:41 64° E 21:27:08 10° NNE
Cosmos 1733 3.8 21:19:23 10° N 21:23:00 41° ENE 21:23:54 34° ESE
BREEZE M DEB (TANK) 4.4 21:19:18 10° WNW 21:24:03 57° SSW 21:37:26 17° SE
ISS -3.7 21:24:22 10° WNW 21:27:40 55° SSW 21:27:54 54° S
ATLAS 2AS CENTAUR R/B 3.1 21:20:09 10° SW 21:27:58 77° NW 21:35:32 10° NE
Meteor 2-15 4.4 21:25:02 22° S 21:29:11 89° WNW 21:35:18 10° N
SL-16 R/B 2.1 21:28:34 23° S 21:32:04 68° ESE 21:37:44 10° NNE
Cosmos 2292 Rocket 4.3 21:30:28 10° NNW 21:33:04 26° W 21:33:59 22° WSW
Cosmos 2279 Rocket 3.9 21:29:53 26° S 21:33:34 78° E 21:39:49 10° N
USA 267 4.0 21:29:38 10° E 21:35:54 51° NNE 21:42:10 10° NW
GENESIS II 4.2 21:40:29 25° SW 21:42:36 82° NW 21:46:34 10° NE
Meteor 1-4 Rocket 2.3 21:45:51 10° NNW 21:49:21 88° WSW 21:49:46 67° S
Meteor 2-10 4.0 21:46:29 10° N 21:51:47 71° ENE 21:53:42 39° SSE
Meteor 1-13 Rocket 4.2 21:50:35 35° S 21:52:58 71° E 21:58:31 10° NNE
Cosmos 1470 4.5 21:51:08 10° NNE 21:54:08 21° ENE 21:54:56 20° E
ATLAS 3B R/B 2.9 21:48:05 10° NW 21:55:26 72° SW 21:59:21 31° SSE
NOSS 2-1 (E) 3.1 21:55:29 39° WSW 21:56:28 64° NW 21:59:43 10° NE
ERS-2 3.9 21:54:14 10° NE 21:56:34 20° E 21:56:34 20° E
Cosmos 2180 Rocket 4.4 21:55:19 30° S 21:58:31 90° W 22:04:43 10° N
Cosmos 44 Rocket 4.1 21:54:19 10° NW 21:58:34 34° WSW 21:59:42 30° SW
Cosmos 2360 Rocket 2.4 21:56:46 37° SSE 21:58:35 52° ESE 22:04:04 10° NE
BREEZE-M DEB (TANK) 2.7 21:56:56 10° W 21:59:31 45° SSW 21:59:31 45° SSW
Cosmos 1346 Rocket 4.3 21:59:32 18° SW 22:01:50 33° WNW 22:05:31 10° N
Cosmos 2263 Rocket 3.7 21:58:30 10° NW 22:02:56 25° WSW 22:05:28 18° SW
Okean 1-7 3.0 22:05:27 52° SSE 22:06:21 68° E 22:10:42 10° NNE
Meteor 1-12 Rocket 4.3 22:00:32 10° N 22:06:32 87° E 22:08:55 38° SSE
Cosmos 1441 Rocket 3.8 22:06:52 37° SW 22:07:55 50° WNW 22:11:33 10° N
ARIANE 5 R/B 4.5 22:08:14 17° SW 22:10:13 23° W 22:13:50 10° NW
Cosmos 1726 2.0 22:07:00 10° N 22:10:40 67° E 22:10:55 64° ESE
Iridium 51 4.0 22:12:56 65° WSW 22:13:11 69° W 22:16:43 10° N
Cosmos 923 Rocket 4.1 22:10:31 10° NNW 22:15:51 71° WSW 22:17:34 43° S
Gblst 52 Del rocket 4.3 22:09:24 10° SW 22:15:53 66° SSE 22:21:37 10° ENE
Cosmos 2278 Rocket 4.3 22:11:59 10° N 22:16:12 21° NE 22:20:25 10° E
Cosmos 1842 3.7 22:16:17 44° E 22:16:23 44° E 22:20:06 10° NNE
Okean 3 3.4 22:18:10 59° SSE 22:18:46 69° E 22:23:01 10° NNE
Cosmos 1356 4.1 22:19:27 40° W 22:19:48 42° WNW 22:22:59 10° N
Cosmos 1937 Rocket 3.5 22:20:55 45° SSE 22:22:19 63° ESE 22:27:33 10° NNE
Cosmos 1242 Rocket 4.4 22:22:16 10° NNE 22:25:02 20° ENE 22:25:33 20° E
H-2A R/B 3.4 22:21:43 10° NNE 22:25:48 64° ESE 22:26:12 60° SE
Cosmos 1626 4.4 22:27:57 14° E 22:27:57 14° E 22:29:50 10° NE
Cosmos 1461 4.3 22:24:23 10° NNW 22:28:09 33° NE 22:30:17 21° E
Cosmos 1703 Rocket 3.7 22:31:17 49° SW 22:32:22 71° W 22:36:48 10° N
Cosmos 1655 Rocket 4.1 22:26:17 10° NNW 22:32:29 69° W 22:35:02 37° SSW
CZ-4C R/B 3.4 22:28:35 10° NW 22:35:32 59° NE 22:42:46 14° ESE
Cosmos 1674 4.4 22:36:12 21° E 22:36:12 21° E 22:38:57 10° NE
Cosmos 2112 Rocket 4.0 22:31:08 10° NNW 22:36:28 73° WSW 22:37:57 47° S
ATLAS CENTAUR R/B 1.7 22:31:46 10° NW 22:36:41 79° NE 22:37:59 48° SE
Cosmos 2322 Rocket 2.7 22:33:36 20° SW 22:37:25 55° WNW 22:42:57 10° NNE
Cosmos 1680 Rocket 3.7 22:32:36 10° NNW 22:37:50 61° WSW 22:39:14 45° SSW
Cosmos 2333 Rocket 2.2 22:37:44 45° SSE 22:39:17 62° ESE 22:44:54 10° NNE
Cosmos 2322 4.1 22:38:53 40° SE 22:40:09 46° ESE 22:45:37 10° NE
Cosmos 1818 3.5 22:36:31 10° NW 22:42:00 76° WSW 22:43:34 47° SSE
USA 215 3.2 22:36:22 10° NE 22:42:58 84° SE 22:49:02 13° SW
Cosmos 1844 Rocket 3.0 22:37:59 10° NW 22:43:26 53° WSW 22:44:54 41° SSW
Meteor 1-23 Rocket 4.3 22:42:38 39° SSW 22:44:56 78° WNW 22:50:48 10° N
Cosmos 1782 Rocket 3.6 22:42:33 10° NNW 22:46:53 65° W 22:47:32 56° SW
Cosmos 1898 Rocket 4.0 22:48:41 30° SW 22:51:12 58° WNW 22:56:28 10° NNE
Cosmos 858 Rocket 4.5 22:51:18 43° SSW 22:53:04 82° WNW 22:58:24 10° NNE
Cosmos 1766 4.3 22:50:28 10° NNW 22:54:01 33° W 22:54:22 32° WSW
Iridium 4 Rocket 4.1 22:51:23 10° NNW 22:55:38 40° W 22:56:59 33° SW
PSLV R/B 4.4 22:52:40 10° NNE 22:56:47 38° E 22:57:15 37° ESE
ADEOS Rocket 2.8 22:55:22 43° SSE 22:57:22 85° ENE 23:03:23 10° NNW
Cosmos 2242 Rocket 4.3 22:59:31 38° WSW 23:00:45 49° WNW 23:05:11 10° N
ALOS 2 2.8 23:01:10 51° SW 23:01:45 55° W 23:06:05 10° NNW
Cosmos 2151 Rocket 4.2 22:58:19 10° N 23:02:35 46° ENE 23:03:31 39° ESE
Cosmos 2219 Rocket 2.1 23:01:15 47° S 23:02:49 72° ESE 23:08:25 10° NNE
Cosmos 1844 4.3 22:58:23 10° NW 23:03:52 45° WSW 23:05:17 38° SW
Cosmos 1300 Rocket 3.4 23:00:22 10° NNW 23:04:44 78° W 23:05:18 65° SSW
Okean 2 3.6 23:06:12 53° ESE 23:06:26 54° E 23:10:26 10° NNE
Okean 2 Rocket 3.4 23:02:27 10° N 23:06:57 59° ENE 23:07:53 48° SE
Cosmos 1707 2.6 23:15:00 74° WSW 23:15:10 76° W 23:19:04 10° N
SL-16 R/B 4.1 23:12:06 10° W 23:16:43 25° NW 23:21:22 10° N
Nimbus 7 Rocket 4.4 23:12:43 10° NNE 23:18:37 70° ESE 23:20:33 43° S
USA 267 3.1 23:14:57 27° SE 23:18:45 74° SW 23:25:19 10° NW
USA 229 DEB 4.1 23:13:22 10° NW 23:20:40 70° NE 23:27:45 13° SE
USA 229 4.2 23:13:28 10° NW 23:20:45 69° NE 23:27:54 13° SE
ASTEX 1 3.3 23:19:32 10° N 23:24:28 76° E 23:25:37 52° SSE
Cosmos 371 Rocket 4.2 23:27:25 33° ESE 23:28:12 35° ESE 23:32:37 10° NE
Cosmos 1470 3.8 23:26:42 10° NNW 23:30:11 32° W 23:30:11 32° W
USA 305 4.2 23:31:27 27° ESE 23:31:27 27° ESE 23:34:01 10° ENE
ERS-2 3.4 23:27:12 10° N 23:30:25 31° WNW 23:30:57 29° W
Cosmos 2237 Rocket 3.2 23:29:40 29° SE 23:31:03 33° ESE 23:36:06 10° NE
NOSS 2-2 (E) 4.4 23:26:04 10° NW 23:31:08 79° NE 23:35:58 21° SE
Sich 1 Rocket 3.6 23:27:11 10° NNW 23:31:32 62° W 23:32:05 56° SW
COSMOS 2428 2.6 23:30:19 45° SSW 23:32:10 85° ESE 23:37:54 10° NNE
KORONAS-FOTON 3.6 23:32:11 78° WSW 23:32:16 79° W 23:36:06 10° N
Cosmos 1048 Rocket 3.9 23:27:14 10° NNW 23:32:27 81° ENE 23:34:05 44° SSE
Cosmos 494 Rocket 3.9 23:30:10 10° NNW 23:35:19 79° ENE 23:37:01 43° SSE
SL-16 R/B 4.5 23:32:04 10° ESE 23:36:48 24° NE 23:41:34 10° N
Cosmos 1125 Rocket 3.8 23:39:45 42° SSE 23:40:59 52° ESE 23:46:02 10° NNE
Cosmos 2360 Rocket 3.7 23:38:29 12° WSW 23:42:52 30° NW 23:47:50 10° NNE
Cosmos 405 Rocket 2.6 23:43:02 71° ESE 23:43:06 71° E 23:46:53 10° NNE
Cosmos 1437 Rocket 2.7 23:39:54 10° N 23:43:39 64° ENE 23:43:58 61° ESE
Okean 1 Rocket 3.2 23:41:27 10° N 23:45:52 67° ENE 23:46:55 48° SE
NOSS 3-1 (A) 4.0 23:39:53 10° NW 23:47:22 77° SW 23:53:17 23° SSE
Resurs 1-4 Rocket 4.0 23:44:35 10° NE 23:48:24 20° E 23:50:52 15° SE
In-Cosmos 22 4.5 23:47:28 37° SW 23:49:28 57° WNW 23:54:53 10° N
Cosmos 1943 Rocket 4.0 23:44:51 10° N 23:49:44 28° NE 23:54:34 10° ESE
Cosmos 1908 3.2 23:46:08 10° NNW 23:49:53 61° W 23:49:54 61° W
Cosmos 1953 2.3 23:46:14 10° N 23:50:16 72° E 23:50:50 60° SE
Cosmos 1709 Rocket 4.3 23:45:23 10° N 23:51:28 59° ENE 23:54:39 28° SSE
